TimeEEST,TemperatureF,Dew PointF,Humidity,Sea Level PressureIn,VisibilityMPH,Wind Direction,Wind SpeedMPH,Gust SpeedMPH,PrecipitationIn,Events,Conditions,WindDirDegrees,DateUTC
12:20 AM,62.6,57.2,82,29.95,-9999.0,ESE,5.8,-,N/A,,Clear,110,2012-10-04 21:20:00
12:50 AM,62.6,57.2,82,29.95,-9999.0,ESE,5.8,-,N/A,,Clear,110,2012-10-04 21:50:00
1:20 AM,62.6,57.2,82,29.95,-9999.0,ESE,5.8,-,N/A,,Clear,110,2012-10-04 22:20:00
1:50 AM,62.6,55.4,77,29.95,-9999.0,ESE,5.8,-,N/A,,Clear,110,2012-10-04 22:50:00
2:20 AM,62.6,55.4,77,29.98,-9999.0,ESE,5.8,-,N/A,,Clear,110,2012-10-04 23:20:00
2:50 AM,60.8,55.4,82,29.98,-9999.0,ESE,5.8,-,N/A,,Clear,110,2012-10-04 23:50:00
3:00 AM,61,55,75,29.98,6,ESE,5.8,,,,,110,2012-10-05 00:00:00
3:20 AM,60.8,55.4,82,29.95,-9999.0,ESE,5.8,-,N/A,,Clear,110,2012-10-05 00:20:00
3:50 AM,60.8,55.4,82,29.95,-9999.0,ESE,5.8,-,N/A,,Clear,120,2012-10-05 00:50:00
4:20 AM,60.8,55.4,82,29.95,-9999.0,ESE,5.8,-,N/A,,Clear,110,2012-10-05 01:20:00
4:50 AM,59.0,53.6,82,29.98,-9999.0,ESE,5.8,-,N/A,,Clear,110,2012-10-05 01:50:00
5:20 AM,59.0,53.6,82,29.98,-9999.0,ESE,5.8,-,N/A,,Clear,110,2012-10-05 02:20:00
5:50 AM,59.0,53.6,82,29.98,-9999.0,East,3.5,-,N/A,,Clear,80,2012-10-05 02:50:00
6:20 AM,59.0,51.8,77,29.98,-9999.0,ESE,4.6,-,N/A,,Clear,120,2012-10-05 03:20:00
6:50 AM,59.0,53.6,82,29.98,-9999.0,ESE,4.6,-,N/A,,Clear,110,2012-10-05 03:50:00
7:20 AM,57.2,51.8,82,29.98,-9999.0,ESE,4.6,-,N/A,,Clear,120,2012-10-05 04:20:00
7:50 AM,57.2,51.8,82,30.01,-9999.0,ESE,4.6,-,N/A,,Clear,120,2012-10-05 04:50:00
8:20 AM,59.0,53.6,82,30.01,-9999.0,Variable,3.5,-,N/A,,Clear,0,2012-10-05 05:20:00
8:50 AM,64.4,55.4,73,30.01,-9999.0,Variable,3.5,-,N/A,,Clear,0,2012-10-05 05:50:00
9:00 AM,64,55,65,30.02,6,,3.5,,,,Clear,,2012-10-05 06:00:00
9:20 AM,68.0,57.2,68,30.01,-9999.0,Calm,Calm,-,N/A,,Clear,0,2012-10-05 06:20:00
9:50 AM,68.0,57.2,68,30.04,-9999.0,NW,5.8,-,N/A,,Clear,310,2012-10-05 06:50:00
10:20 AM,69.8,57.2,64,30.04,-9999.0,WNW,6.9,-,N/A,,Clear,300,2012-10-05 07:20:00
10:50 AM,71.6,55.4,57,30.04,-9999.0,NW,6.9,-,N/A,,Clear,310,2012-10-05 07:50:00
11:20 AM,73.4,55.4,53,30.04,-9999.0,Variable,3.5,-,N/A,,Clear,0,2012-10-05 08:20:00
11:50 AM,75.2,53.6,47,30.04,-9999.0,WNW,5.8,-,N/A,,Clear,300,2012-10-05 08:50:00
12:20 PM,77.0,51.8,41,30.04,-9999.0,NW,6.9,-,N/A,,Clear,310,2012-10-05 09:20:00
12:50 PM,78.8,53.6,42,30.04,6.2,WNW,5.8,-,N/A,,Scattered Clouds,290,2012-10-05 09:50:00
1:20 PM,78.8,55.4,44,30.04,6.2,West,6.9,-,N/A,,Scattered Clouds,280,2012-10-05 10:20:00
1:50 PM,80.6,51.8,37,30.04,6.2,West,6.9,-,N/A,,Scattered Clouds,280,2012-10-05 10:50:00
2:20 PM,80.6,51.8,37,30.01,6.2,West,8.1,-,N/A,,Scattered Clouds,280,2012-10-05 11:20:00
2:50 PM,80.6,57.2,45,30.01,6.2,West,8.1,-,N/A,,Scattered Clouds,270,2012-10-05 11:50:00
3:00 PM,81,58,35,30.03,6,West,8.1,,,,Scattered Clouds,270,2012-10-05 12:00:00
3:20 PM,82.4,55.4,39,30.01,6.2,West,8.1,-,N/A,,Scattered Clouds,260,2012-10-05 12:20:00
3:50 PM,82.4,53.6,37,30.01,6.2,West,8.1,-,N/A,,Scattered Clouds,260,2012-10-05 12:50:00
4:20 PM,84.2,46.4,27,30.01,6.2,West,6.9,-,N/A,,Partly Cloudy,270,2012-10-05 13:20:00
4:50 PM,84.2,44.6,25,30.01,6.2,West,5.8,-,N/A,,Partly Cloudy,280,2012-10-05 13:50:00
5:20 PM,84.2,42.8,23,30.01,6.2,West,4.6,-,N/A,,Partly Cloudy,260,2012-10-05 14:20:00
5:50 PM,84.2,46.4,27,30.01,6.2,West,5.8,-,N/A,,Partly Cloudy,260,2012-10-05 14:50:00
6:20 PM,82.4,46.4,28,30.01,6.2,WSW,5.8,-,N/A,,Partly Cloudy,250,2012-10-05 15:20:00
6:50 PM,78.8,48.2,34,30.04,-9999.0,South,8.1,-,N/A,,Clear,190,2012-10-05 15:50:00
7:20 PM,77.0,50.0,39,30.04,-9999.0,SSW,8.1,-,N/A,,Clear,200,2012-10-05 16:20:00
7:50 PM,75.2,51.8,44,30.04,-9999.0,SSE,8.1,-,N/A,,Clear,150,2012-10-05 16:50:00
8:20 PM,75.2,53.6,47,30.04,-9999.0,SE,4.6,-,N/A,,Clear,130,2012-10-05 17:20:00
8:50 PM,73.4,53.6,50,30.04,-9999.0,Variable,3.5,-,N/A,,Clear,0,2012-10-05 17:50:00
9:00 PM,74,54,38,30.06,6,,3.5,,,,Clear,,2012-10-05 18:00:00
9:20 PM,69.8,53.6,56,30.06,-9999.0,Variable,3.5,-,N/A,,Clear,0,2012-10-05 18:20:00
9:50 PM,68.0,53.6,60,30.06,-9999.0,Variable,3.5,-,N/A,,Clear,0,2012-10-05 18:50:00
10:20 PM,68.0,53.6,60,30.09,-9999.0,Variable,3.5,-,N/A,,Clear,0,2012-10-05 19:20:00
10:50 PM,66.2,53.6,64,30.09,-9999.0,ESE,5.8,-,N/A,,Clear,110,2012-10-05 19:50:00
11:20 PM,66.2,53.6,64,30.09,-9999.0,ESE,5.8,-,N/A,,Clear,110,2012-10-05 20:20:00
11:50 PM,64.4,55.4,73,30.09,-9999.0,ESE,6.9,-,N/A,,Clear,110,2012-10-05 20:50:00